Stations météo

réclame
Mon MeteoGroup
Vitoria, Espagne (8080): Température de l'air & dewpoint: 01.08.2020 22:00:00 - 07.08.2020 22:00:00 (CEST)Vitoria, Espagne (8080): Vitesse du vent: 01.08.2020 22:00:00 - 07.08.2020 22:00:00 (CEST)Vitoria, Espagne (8080): Direction du vent: 01.08.2020 22:00:00 - 07.08.2020 22:00:00 (CEST)Vitoria, Espagne (8080): reduced air pressure: 01.08.2020 22:00:00 - 07.08.2020 22:00:00 (CEST)Vitoria, Espagne (8080): visibility: 01.08.2020 22:00:00 - 07.08.2020 22:00:00 (CEST)
Date & Time tt [°C] td [°C] ff [km/h] ff [knt] dd ppp [hPa] vv [km]
07.08.2020 22:00:00 22,8 18,9 13 7 N 1018,2 -
07.08.2020 21:00:00 23,5 18,2 18 10 NNE 1017,1 -
07.08.2020 20:00:00 24,4 17,9 13 7 NNE 1016,4 15
07.08.2020 19:00:00 24,4 18,3 22 12 NNE 1015,8 -
07.08.2020 18:00:00 24,7 16,1 15 8 NE 1014,5 -
07.08.2020 17:00:00 26,9 16,2 22 12 ESE 1014,0 15
07.08.2020 16:00:00 36,7 15,5 8 4 E 1011,7 -
07.08.2020 15:00:00 37,4 15,9 13 7 ENE 1011,9 -
07.08.2020 14:00:00 36,0 16,5 8 4 NNE 1012,5 40
07.08.2020 13:00:00 34,3 16,8 4 2 S 1013,3 -
07.08.2020 12:00:00 32,8 17,4 5 3 WSW 1014,0 -
07.08.2020 11:00:00 30,7 16,9 4 2 SSW 1014,6 35
07.08.2020 10:00:00 28,5 16,0 4 2 W 1015,0 -
07.08.2020 09:00:00 23,7 16,2 2 1 E 1015,8 30
07.08.2020 08:00:00 18,2 15,3 0 0 N 1016,7 25
07.08.2020 07:00:00 16,4 13,4 8 4 SSW 1016,5 -
07.08.2020 06:00:00 17,3 13,4 4 2 NW 1015,7 -
07.08.2020 05:00:00 18,3 14,0 5 3 WNW 1015,2 20
07.08.2020 04:00:00 18,7 14,4 2 1 WSW 1014,9 -
07.08.2020 03:00:00 20,9 13,8 4 2 W 1014,4 -
07.08.2020 02:00:00 22,3 14,1 4 2 NNE 1014,2 22
07.08.2020 01:00:00 22,5 15,1 4 2 NNW 1014,1 -
07.08.2020 00:00:00 25,4 15,3 11 6 NNE 1013,3 -
06.08.2020 23:00:00 27,3 15,3 13 7 NNE 1012,7 25
06.08.2020 22:00:00 29,7 15,0 8 4 E 1011,8 -
06.08.2020 21:00:00 32,5 15,5 9 5 E 1010,6 -
06.08.2020 20:00:00 34,5 16,4 15 8 SE 1009,7 30
06.08.2020 19:00:00 36,0 15,3 18 10 ESE 1009,3 -
06.08.2020 18:00:00 36,7 15,8 13 7 ESE 1009,3 -
06.08.2020 17:00:00 36,4 15,5 11 6 E 1009,6 40
06.08.2020 16:00:00 36,1 15,1 9 5 SSW 1010,3 -
06.08.2020 15:00:00 34,5 15,1 9 5 ESE 1011,2 40
06.08.2020 14:00:00 32,6 15,9 8 4 S 1011,9 40
06.08.2020 13:00:00 30,0 15,6 2 1 SSE 1012,9 -
06.08.2020 12:00:00 27,7 15,3 5 3 SSE 1013,7 -
06.08.2020 11:00:00 25,1 15,5 4 2 WSW 1014,7 40
06.08.2020 10:00:00 - - - - - - -
06.08.2020 09:00:00 - - - - - - -
06.08.2020 08:00:00 10,9 2,4 0 0 N 1017,8 35
06.08.2020 07:00:00 - - - - - - -
06.08.2020 06:00:00 - - - - - - -
06.08.2020 05:00:00 9,5 6,8 - - - 1017,7 20
06.08.2020 04:00:00 - - - - - - -
06.08.2020 03:00:00 - - - - - - -
06.08.2020 02:00:00 - - - - - - -
06.08.2020 01:00:00 - - - - - - -
06.08.2020 00:00:00 - - - - - - -
05.08.2020 23:00:00 17,2 10,6 5 3 N 1015,6 30
05.08.2020 22:00:00 - - - - - - -
05.08.2020 21:00:00 - - - - - - -
05.08.2020 20:00:00 28,3 7,8 21 11 NNE 1011,4 40
05.08.2020 19:00:00 - - - - - - -
05.08.2020 18:00:00 - - - - - - -
05.08.2020 17:00:00 32,5 4,9 13 7 NE 1010,2 50
05.08.2020 16:00:00 - - - - - - -
05.08.2020 15:00:00 - - - - - - -
05.08.2020 14:00:00 28,0 10,5 5 3 E 1012,1 35
05.08.2020 13:00:00 - - - - - - -
05.08.2020 12:00:00 - - - - - - -
05.08.2020 11:00:00 18,3 12,8 8 4 NE 1015,2 25
05.08.2020 10:00:00 - - - - - - -
05.08.2020 09:00:00 - - - - - - -
05.08.2020 08:00:00 10,2 10,1 0 0 N 1017,1 0,4
05.08.2020 07:00:00 - - - - - - -
05.08.2020 06:00:00 - - - - - - -
05.08.2020 05:00:00 8,8 8,3 0 0 N 1017,9 20
05.08.2020 04:00:00 - - - - - - -
05.08.2020 03:00:00 - - - - - - -
05.08.2020 02:00:00 9,9 8,7 4 2 S 1018,8 25
05.08.2020 01:00:00 - - - - - - -
05.08.2020 00:00:00 - - - - - - -
04.08.2020 23:00:00 14,9 12,0 4 2 N 1018,0 25
04.08.2020 22:00:00 - - - - - - -
04.08.2020 21:00:00 - - - - - - -
04.08.2020 20:00:00 21,9 13,3 22 12 NE 1016,1 30
04.08.2020 19:00:00 - - - - - - -
04.08.2020 18:00:00 - - - - - - -
04.08.2020 17:00:00 24,2 13,2 16 9 NE 1016,0 30
04.08.2020 16:00:00 - - - - - - -
04.08.2020 15:00:00 - - - - - - -
04.08.2020 14:00:00 21,8 14,3 15 8 NNE 1017,9 20
04.08.2020 13:00:00 - - - - - - -
04.08.2020 12:00:00 - - - - - - -
04.08.2020 11:00:00 - - - - - - -
04.08.2020 10:00:00 - - - - - - -
04.08.2020 09:00:00 - - - - - - -
04.08.2020 08:00:00 - - - - - - -
04.08.2020 07:00:00 - - - - - - -
04.08.2020 06:00:00 13,8 12,4 4 2 SSE 1019,8 -
04.08.2020 05:00:00 13,6 12,2 2 1 E 1020,1 20
04.08.2020 04:00:00 13,5 12,2 5 3 N 1020,4 -
04.08.2020 03:00:00 12,8 12,3 8 4 WSW 1020,7 -
04.08.2020 02:00:00 11,6 11,0 4 2 SW 1021,4 20
04.08.2020 01:00:00 11,4 10,1 8 4 SW 1021,4 -
04.08.2020 00:00:00 13,8 11,6 8 4 NNE 1020,7 -
03.08.2020 23:00:00 14,8 11,8 9 5 N 1020,2 20
03.08.2020 22:00:00 16,4 11,5 11 6 N 1019,3 -
03.08.2020 21:00:00 18,8 11,5 16 9 N 1018,3 -
03.08.2020 20:00:00 20,3 10,7 22 12 NNE 1017,7 25
03.08.2020 19:00:00 21,5 11,1 22 12 NNE 1017,2 -
03.08.2020 18:00:00 22,7 10,7 18 10 NNE 1016,8 -
03.08.2020 17:00:00 23,0 11,6 18 10 NNE 1017,0 25
03.08.2020 16:00:00 22,3 12,5 22 12 NE 1017,3 -
03.08.2020 15:00:00 22,4 12,0 22 12 NE 1017,7 21
03.08.2020 14:00:00 21,6 12,8 18 10 NNE 1018,3 21
03.08.2020 13:00:00 19,9 12,6 13 7 N 1018,8 -
03.08.2020 12:00:00 19,7 12,9 18 10 NNW 1019,1 -
03.08.2020 11:00:00 18,3 12,5 13 7 NW 1019,3 20
03.08.2020 10:00:00 17,5 13,2 5 3 ENE 1019,2 -
03.08.2020 09:00:00 16,0 13,6 4 2 E 1019,5 20
03.08.2020 08:00:00 11,9 11,6 0 0 N 1020,3 15
03.08.2020 07:00:00 10,2 9,9 4 2 N 1020,8 -
03.08.2020 06:00:00 10,5 9,9 0 0 N 1020,8 -
03.08.2020 05:00:00 11,7 11,1 4 2 N 1020,3 -
03.08.2020 04:00:00 13,7 12,3 8 4 W 1020,3 -
03.08.2020 03:00:00 14,8 12,8 5 3 WNW 1020,0 -
03.08.2020 02:00:00 14,0 12,7 4 2 WNW 1020,7 20
03.08.2020 01:00:00 14,3 12,7 0 0 N 1021,3 -
03.08.2020 00:00:00 15,0 13,2 8 4 N 1021,1 -
02.08.2020 23:00:00 16,0 13,7 11 6 NNW 1021,3 20
02.08.2020 22:00:00 16,8 13,0 8 4 NNW 1020,8 -
02.08.2020 21:00:00 17,4 13,5 15 8 N 1020,2 -
02.08.2020 20:00:00 17,9 13,7 16 9 NNE 1020,0 20
02.08.2020 19:00:00 19,5 13,9 11 6 N 1019,4 -
02.08.2020 18:00:00 19,7 13,6 22 12 N 1019,6 -
02.08.2020 17:00:00 19,9 13,6 24 13 NNE 1020,1 20
02.08.2020 16:00:00 19,6 14,2 24 13 NNE 1020,7 -
02.08.2020 15:00:00 18,7 14,8 21 11 NE 1020,9 20
02.08.2020 14:00:00 19,3 14,2 16 9 NNE 1020,9 20
02.08.2020 13:00:00 18,6 14,3 16 9 N 1021,5 -
02.08.2020 12:00:00 17,9 14,1 18 10 NNE 1021,5 -
02.08.2020 11:00:00 17,6 14,1 18 10 NNE 1021,4 20
02.08.2020 10:00:00 17,4 13,7 16 9 N 1021,2 -
02.08.2020 09:00:00 17,2 14,2 5 3 NW 1020,9 18
02.08.2020 08:00:00 16,8 13,6 9 5 NNW 1021,1 18
02.08.2020 07:00:00 16,5 13,6 15 8 N 1021,1 -
02.08.2020 06:00:00 16,9 15,1 5 3 NNW 1021,0 -
02.08.2020 05:00:00 17,1 14,9 11 6 NNE 1020,8 14
02.08.2020 04:00:00 17,3 14,9 4 2 WNW 1020,8 -
02.08.2020 03:00:00 17,3 14,4 4 2 WNW 1021,2 -
02.08.2020 02:00:00 17,4 14,0 5 3 WNW 1021,8 14
02.08.2020 01:00:00 17,6 13,7 18 10 N 1021,9 -
02.08.2020 00:00:00 18,1 15,8 8 4 NNE 1021,9 -
01.08.2020 23:00:00 18,3 16,3 8 4 N 1021,9 12
01.08.2020 22:00:00 18,7 16,7 8 4 N 1021,4 -

tt = Température de l'air
td = dewpoint
ff = Vitesse du vent
dd = Direction du vent
ppp = reduced air pressure
vv = visibility

stations d'obs. à proximité